CDT,Max TemperatureF,Mean TemperatureF,Min TemperatureF,Max Dew PointF,MeanDew PointF,Min DewpointF,Max Humidity, Mean Humidity, Min Humidity, Max Sea Level PressureIn, Mean Sea Level PressureIn, Min Sea Level PressureIn, Max VisibilityMiles, Mean VisibilityMiles, Min VisibilityMiles, Max Wind SpeedMPH, Mean Wind SpeedMPH, Max Gust SpeedMPH,PrecipitationIn, CloudCover, Events, WindDirDegrees
2013-3-1,30,27,23,25,21,18,88,81,74,30.33,30.24,30.17,10,7,2,15,9,18,T,8,Snow,336
2013-3-2,31,27,22,20,17,14,88,71,53,30.38,30.31,30.21,10,10,9,13,5,21,0.00,5,,310
2013-3-3,41,32,22,27,23,18,84,69,54,30.20,29.97,29.77,10,9,7,17,10,22,0.00,2,,145
2013-3-4,50,42,34,34,30,27,76,63,50,29.96,29.76,29.68,10,9,4,15,8,20,T,1,Rain,76
2013-3-5,36,32,27,34,23,16,100,76,52,30.37,30.15,29.95,10,8,1,28,16,36,0.04,6,Snow,324
2013-3-6,36,30,23,21,19,17,75,66,56,30.45,30.38,30.31,10,10,10,17,6,22,0.00,2,,39
2013-3-7,46,35,23,30,25,19,88,71,53,30.31,30.24,30.14,10,10,10,14,9,17,0.00,0,,110
2013-3-8,55,46,37,39,34,27,76,68,59,30.22,30.13,29.98,10,9,8,17,12,23,T,3,Rain,138
2013-3-9,57,51,45,55,50,39,100,83,66,29.98,29.72,29.60,10,4,0,20,11,26,0.59,7,Fog-Rain-Thunderstorm,131
2013-3-10,53,40,26,52,40,21,100,91,81,29.91,29.69,29.54,10,5,0,24,12,33,0.01,6,Fog-Rain,301
2013-3-11,37,31,24,24,21,17,88,68,47,30.04,29.94,29.88,10,9,2,18,9,24,T,5,Snow,292
2013-3-12,47,38,28,27,22,19,78,56,34,30.35,30.19,30.04,10,10,10,24,11,33,0.00,2,,309
2013-3-13,44,34,23,24,20,18,81,60,39,30.50,30.41,30.34,10,10,10,10,6,14,0.00,1,,303
2013-3-14,71,52,32,39,31,22,64,46,27,30.32,30.14,30.06,10,10,10,18,8,31,0.00,0,,229
2013-3-15,79,59,39,48,41,35,79,55,30,30.07,29.82,29.65,10,10,10,20,8,26,0.00,0,,210
2013-3-16,60,48,36,43,34,27,85,68,51,30.08,29.94,29.69,10,9,5,25,15,31,0.00,4,,21
2013-3-17,36,34,32,34,29,24,100,85,69,30.04,29.91,29.74,10,7,2,20,12,24,0.07,8,Rain,73
2013-3-18,53,42,31,36,29,17,100,64,28,30.07,29.86,29.74,10,6,1,23,10,32,0.01,5,Rain,322
2013-3-19,38,32,26,36,28,15,100,72,44,30.27,30.21,30.09,10,5,0,8,2,10,0.07,6,Fog-Snow,242
2013-3-20,39,32,24,33,14,6,100,64,27,30.41,30.29,30.15,10,9,1,22,10,33,0.00,1,,330
2013-3-21,29,27,24,28,20,10,100,75,50,30.12,29.99,29.90,10,6,1,16,9,23,T,7,Snow,99
2013-3-22,33,31,29,31,29,27,100,93,85,30.02,29.97,29.92,9,4,2,13,7,15,0.01,8,Snow,70
2013-3-23,38,35,31,32,31,27,100,82,64,30.04,29.93,29.83,8,3,0,21,11,26,0.24,8,Fog-Rain-Snow,41
2013-3-24,32,27,22,31,26,16,100,85,69,30.10,29.91,29.78,10,3,0,25,17,33,0.12,7,Fog-Snow,346
2013-3-25,32,26,20,27,22,16,92,81,69,30.36,30.18,30.05,10,6,2,22,12,29,T,7,Snow,315
2013-3-26,33,27,21,21,19,18,92,73,54,30.43,30.37,30.32,10,10,10,12,5,17,0.00,0,,286
2013-3-27,48,36,24,32,26,19,81,66,50,30.33,30.27,30.21,10,10,10,16,8,20,0.00,5,,114
2013-3-28,63,50,36,41,35,31,76,59,42,30.22,30.18,30.13,10,10,10,10,6,26,0.00,3,,102
2013-3-29,67,54,41,46,40,36,89,61,32,30.21,30.15,30.08,10,9,5,15,8,24,0.00,1,,95
2013-3-30,65,58,50,55,51,45,100,82,63,30.07,29.94,29.85,10,9,1,18,6,23,0.13,7,Rain-Thunderstorm,170
2013-3-31,65,55,45,52,39,27,100,65,30,29.97,29.94,29.92,10,9,3,18,8,25,T,2,,320